Overview Statistics Trail Chart Weather Telemetry Raw packets
 

This is the latest recevied weather packets stored in our database for station/object N0MR. If no packets are shown the sender has not sent any weather packets the latest 10 day(s).

<< 34 35 36 37 38 39 40 >>
Time Temp. Humidity Pressure Rain* Wind** Luminosity Snow
1788024350 21.67° C 76% 1012.7 hPa 0 mm - - -
1788023751 21.67° C 76% 1012.7 hPa 0 mm - - -
1788023149 20.56° C 80% 1013 hPa 0 mm - - -
1788022548 20.56° C 80% 1013 hPa 0 mm - - -
1788021948 18.89° C 84% 1013 hPa 0 mm - - -
1788014150 15.56° C 92% 1013.6 hPa 0 mm - - -
1788013549 15.56° C 92% 1013.6 hPa 0 mm - - -
1788011750 15° C 93% 1014.1 hPa 0 mm - - -
1788011151 15° C 93% 1014.1 hPa 0 mm - - -
1788010551 14.44° C 93% 1014.3 hPa 0 mm - - -
1788009951 14.44° C 93% 1014.3 hPa 0 mm - - -
1788009351 14.44° C 94% 1014.3 hPa 0 mm - - -
1787955956 21.67° C 60% 1016.9 hPa 0 mm - - -
1787955355 21.67° C 60% 1016.9 hPa 0 mm - - -
1787954755 22.22° C 58% 1017.1 hPa 0 mm - - -
1787953556 22.22° C 60% 1017.3 hPa 0 mm - - -
1787952956 22.22° C 60% 1017.3 hPa 0 mm - - -
1787952355 22.22° C 58% 1017.2 hPa 0 mm - - -
1787951756 22.78° C 57% 1017.4 hPa 0 mm - - -
1787951156 22.78° C 57% 1017.4 hPa 0 mm - - -
1787950556 22.78° C 58% 1017.6 hPa 0 mm - - -
1787949956 22.78° C 58% 1017.6 hPa 0 mm - - -
1787949356 22.78° C 58% 1017.7 hPa 0 mm - - -
1787948757 22.78° C 58% 1017.7 hPa 0 mm - - -
1787948156 23.33° C 59% 1017.9 hPa 0 mm - - -

* Rain latest hour (hover to see other rain measurements)
** Current wind speed in m/s (hover to see current wind gust speed)